Gesamt
Mangaia Airport (Mangaia (Auau Enua)) MGS Wetter
|
Mangaia (Auau Enua) (MGS / NCMG)
Klarer Himmel
Leichter Wind |
|
24 °C |
There is no TAF data available at MGS or any nearby airports.
Kürzlicher METAR-Verlauf für MGS
| Date | Time (-10) | Flight Rules | Wind Dir. | Speed | Type | Height AGL (ft) | Visibility | Temp (°C) | Temp (°F) | Dew Point (°C) | Dew Point (°F) | Rel. Humid. | Pressure | Density Altitude | Remarks |
|---|---|---|---|---|---|---|---|---|---|---|---|---|---|---|---|
| 04-Mai | 03:00 | n/a | 140° | 7 kt | Missing | 24° | 75° | 21° | 69° | 83% | 1012 mb | 1.127 ft | |||
| 04-Mai | 02:00 | n/a | 140° | 5 kt | Missing | 24° | 75° | 21° | 69° | 83% | 1012 mb | 1.127 ft | |||
| 04-Mai | 01:00 | n/a | 150° | 5 kt | Missing | 24° | 75° | 21° | 69° | 83% | 1013 mb | 1.097 ft | |||
| 04-Mai | 00:00 | n/a | 150° | 5 kt | Missing | 24° | 75° | 21° | 69° | 83% | 1013 mb | 1.097 ft | |||
| 03-Mai | 23:00 | n/a | 140° | 4 kt | Missing | 23° | 73° | 21° | 69° | 89% | 1013 mb | 977 ft | |||
| 03-Mai | 22:00 | n/a | 140° | 4 kt | Missing | 22° | 71° | 21° | 69° | 94% | 1013 mb | 857 ft | |||
| 03-Mai | 21:00 | n/a | 100° | 3 kt | Missing | 22° | 71° | 21° | 69° | 94% | 1012 mb | 887 ft | |||
| 03-Mai | 20:00 | n/a | 130° | 3 kt | Missing | 22° | 71° | 22° | 71° | 100% | 1011 mb | 916 ft | |||
| 03-Mai | 19:00 | n/a | 120° | 3 kt | Missing | 23° | 73° | 22° | 71° | 94% | 1011 mb | 1.036 ft | |||
| 03-Mai | 18:00 | n/a | 130° | 4 kt | Missing | 24° | 75° | 22° | 71° | 89% | 1010 mb | 1.186 ft | |||
| 03-Mai | 17:00 | n/a | 140° | 5 kt | Missing | 24° | 75° | 22° | 71° | 89% | 1010 mb | 1.186 ft | |||
| 03-Mai | 16:00 | n/a | 140° | 6 kt | Missing | 25° | 77° | 22° | 71° | 83% | 1010 mb | 1.306 ft | |||
| 03-Mai | 15:00 | n/a | 140° | 8 kt | Missing | 25° | 77° | 22° | 71° | 83% | 1009 mb | 1.335 ft | |||
| 03-Mai | 14:00 | n/a | 160° | 6 kt | Missing | 24° | 75° | 23° | 73° | 94% | 1010 mb | 1.186 ft | |||
| 03-Mai | 13:00 | n/a | 220° | 6 kt | Missing | 24° | 75° | 23° | 73° | 94% | 1011 mb | 1.156 ft | |||
| 03-Mai | 12:00 | n/a | 220° | 6 kt | Missing | 24° | 75° | 23° | 73° | 94% | 1011 mb | 1.156 ft | |||
| 03-Mai | 11:00 | n/a | 160° | 4 kt | Missing | 25° | 77° | 23° | 73° | 89% | 1011 mb | 1.276 ft | |||
| 03-Mai | 10:00 | n/a | 200° | 3 kt | Missing | 27° | 80° | 23° | 73° | 79% | 1011 mb | 1.516 ft | |||
| 03-Mai | 09:00 | n/a | 240° | 2 kt | Missing | 26° | 78° | 24° | 75° | 89% | 1011 mb | 1.396 ft | |||
| 03-Mai | 08:00 | n/a | 190° | 2 kt | Missing | 24° | 75° | 23° | 73° | 94% | 1010 mb | 1.186 ft | |||
| 03-Mai | 07:00 | n/a | 140° | 2 kt | Missing | 23° | 73° | 23° | 73° | 100% | 1010 mb | 1.066 ft | |||
| 03-Mai | 06:00 | n/a | 150° | 2 kt | Missing | 24° | 75° | 23° | 73° | 94% | 1009 mb | 1.215 ft | |||
| 03-Mai | 05:00 | n/a | 220° | 3 kt | Missing | 25° | 77° | 23° | 73° | 89% | 1009 mb | 1.335 ft | |||
| 03-Mai | 04:00 | n/a | 230° | 2 kt | Missing | 24° | 75° | 23° | 73° | 94% | 1009 mb | 1.215 ft |
Anmelden
| Ihr Browser wird nicht unterstützt. aktualisieren Sie Ihren Browser |
